BREEZE-M R/B, 37827

Orbit data source: Space-Track

BREEZE-M R/B, 37827 is space debris in HEO originally from a launch on Thu, 29 Sep 2011 UTC launched from the Tyuratam Missile And Space Complex (TTMTR). Debris objects in space refer to the collection of defunct objects orbiting the Earth. Examples of debris include non-operational satellites, rocket bodies, and fragments generated from explosions, collisions, or faulty payload assembly.

Loading next visibility...
Identifier
37827, 2011-054B
Orbit
HEO
Country
Flag of CISCIS
Related business
Manufacturer
Khrunichev
Mission
Spacecraft
Bus & Motor
BRIZ, Unknown motor
Mass
~1,600 kg wet, 1,600 kg dry
Launch date (UTC)
2011-09-29 (15 years ago)
Launch vehicle
Unknown
Launch site
Tyuratam Missile And Space Complex (TTMTR)
Object type
Payload
Rocket body
Debris
Shape & HBR
Cyl, 2.4 m
Radar Cross Section
15.135 m², Large (>1 m²)

Expand to show TLE details & history
Last TLE update: 12 hours ago

TLE from 12 hours ago
0 BREEZE-M R/B
1 37827U 11054B   26264.74558625  .00000172  00000-0  00000-0 0  9990
2 37827  17.0253 195.8677 5587075  69.8473 155.2368  2.07655279112393
Epoch: 2026-09-21T17:53Z
TLE epoch observation values (Epoch: 2026-09-21T17:53:38.652Z)
Latitude
-14.91176°
Longitude
167.05247°
Altitude
33,495.086 km
Speed
2.153 km/s
True Right ascension
05h 04m 20s
True Declination
-14° 53' 47"
Sunlit
Object was in daylight at epoch
Visualization orbit readout
Latitude
Unknown
Longitude
Unknown
Altitude
Unknown
Speed
Unknown
Apparent Right ascension
Unknown
Apparent Declination
Unknown
Sunlit
N/A
Visualization observer readout
Local Sidereal Time
22:51:59
Azimuth
Unknown
Elevation
Unknown
Doppler factor
Unknown
Orbital elements
Apogee altitude
34,077.725 km
Perigee altitude
5,075.499 km
Semi-major axis
25,954.749 km
Eccentricity
0.55871
Inclination
17.0253°
RAAN
195.8677°
Arg. of periapsis
69.8473°
True anomaly
171.468°
Mean anomaly
155.2368°
Eccentric anomaly
164.03929°
Mean motion
0.51906 °/min
Orbital period
693.56 mins
BSTAR
0
Loading maneuver chart data...
Computing Atmospheric mass density...
Loading historical data...
Loading historical data...
Loading historical data...
Loading historical data...
Loading historical data...
Loading historical data...
Loading historical data...
Other satellites on launch #54 in the year 2011 (2011-09-29 UTC)

Documentation

Showing up to 5 results
|